Regional Weather Roundup
Issued by NWS

Home | Current Version | Previous Version | Text Only | Print | Product List | Glossary Off
Versions: 1 2 3 4 5 6 7 8 9 10 11 12 13 14 15 16 17 18 19 20 21 22 23 24 25 26 27 28 29 30 31 32 33 34 35 36 37 38 39 40 41 42 43 44 45 46 47 48 49 50

000
ASUS45 KBOI 040810
RWRID
WEATHER ROUNDUP FOR IDAHO
NATIONAL WEATHER SERVICE BOISE ID
100 AM MST WED MAR 04 2015

NOTE: "FAIR" INDICATES FEW OR NO CLOUDS BELOW 12000 FEET
WITH NO SIGNIFICANT WEATHER AND/OR OBSTRUCTIONS TO VISIBILITY

IDZ012-014-040900-
SOUTHWEST IDAHO


CITY           SKY/WX    TMP DP  RH WIND       PRES   REMARKS
BOISE          CLEAR     28  14  55 VRB3      30.13R
CALDWELL       CLEAR     28  10  47 NW13      30.17R WCI  18
MOUNTAIN HOME  CLEAR     25  12  59 NW10      30.11R WCI  14
$$

IDZ016-017-040900-
SOUTHCENTRAL IDAHO


CITY           SKY/WX    TMP DP  RH WIND       PRES   REMARKS
BURLEY         CLEAR     28  11  48 W8        30.02R WCI  20
JEROME         CLEAR     27  11  51 SW15      30.03R WCI  15
TWIN FALLS     CLEAR     29  12  49 SW20      30.04R WCI  16
$$

IDZ019>023-040900-
SOUTHEAST IDAHO


CITY           SKY/WX    TMP DP  RH WIND       PRES   REMARKS
IDAHO FALLS    CLEAR     20  12  71 N7        30.02R WCI  11
POCATELLO      CLOUDY    26  17  68 SW13      30.03R WCI  15
REXBURG        CLEAR     13   6  74 NE6       30.03R WCI   4
$$

IDZ006-010-011-018-031-032-040900-
CENTRAL IDAHO MOUNTAINS


CITY           SKY/WX    TMP DP  RH WIND       PRES   REMARKS
MCCALL         CLEAR     18   9  68 N8        30.06R WCI   8
HAILEY         CLEAR     21  14  73 NW7       29.98R WCI  13
STANLEY          N/A      7  -5  57 S7        30.00R WCI  -5
SALMON         PTCLDY    19   7  58 SE3       30.11R
CHALLIS        CLEAR     20   4  50 N8        30.05R WCI  10
$$

IDZ002-004-006-007-026-040900-
NORTHERN IDAHO


CITY           SKY/WX    TMP DP  RH WIND       PRES   REMARKS
LEWISTON       CLEAR     30  17  58 CALM      30.25R
LOWELL           N/A     25  21  85 CALM      30.30R
COEUR D`ALENE  CLEAR     23  10  58 CALM      30.17R
MULLAN PASS    CLEAR     13   5  70 W5        30.00R WCI   5
$$



USA.gov is the U.S. government's official web portal to all federal, state and local government web resources and services.